QPF
0.00 0.00 0.00 0.00 0.00 0.00 0.00 0.00 0.00 0.00 0.00 0.00 0.00 0.00 0.00 0.00 0.00 0.00 0.00 0.00 0.00 0.00 0.00 0.00 0.00 0.00 0.00 0.00 0.00 0.00 0.01 0.02 0.04 0.07 0.12 0.17 0.14 0.17 0.16 0.13 0.14 0.04
0.00 0.00 0.00 0.00 0.00 0.00 0.00 0.00 0.00 0.00 0.00 0.00 0.00 0.00 0.00 0.00 0.00 0.00 0.00 0.00 0.00 0.00 0.00 0.00 0.00 0.00 0.00 0.00 0.00 0.00 0.01 0.02 0.03 0.05 0.11 0.13 0.19 0.10 0.29 0.17 0.14 0.15
0.00 0.00 0.00 0.00 0.00 0.00 0.00 0.00 0.00 0.00 0.00 0.00 0.00 0.00 0.00 0.00 0.00 0.00 0.00 0.00 0.00 0.00 0.00 0.00 0.00 0.00 0.00 0.00 0.00 0.00 0.00 0.01 0.03 0.05 0.07 0.16 0.20 0.18 0.06 0.12 0.16 0.14
0.00 0.00 0.00 0.00 0.00 0.00 0.00 0.00 0.00 0.00 0.00 0.00 0.00 0.00 0.00 0.00 0.00 0.00 0.00 0.00 0.00 0.00 0.00 0.00 0.00 0.00 0.00 0.00 0.00 0.00 0.00 0.00 0.00 0.02 0.05 0.09 0.15 0.22 0.15 0.08 0.25 0.21
0.00 0.00 0.00 0.00 0.00 0.00 0.00 0.00 0.00 0.00 0.00 0.00 0.00 0.00 0.00 0.00 0.00 0.00 0.00 0.00 0.00 0.00 0.00 0.00 0.00 0.00 0.00 0.00 0.00 0.00 0.00 0.00 0.00 0.00 0.03 0.09 0.13 0.18 0.22 0.15 0.13 0.11
0.00 0.00 0.00 0.00 0.00 0.00 0.00 0.00 0.00 0.00 0.00 0.00 0.00 0.00 0.00 0.00 0.00 0.00 0.00 0.00 0.00 0.00 0.00 0.00 0.00 0.00 0.00 0.00 0.00 0.00 0.00 0.00 0.00 0.00 0.00 0.03 0.09 0.13 0.16 0.19 0.18 0.09
0.00 0.00 0.00 0.00 0.00 0.00 0.00 0.00 0.00 0.00 0.00 0.00 0.00 0.00 0.00 0.00 0.00 0.00 0.00 0.00 0.00 0.00 0.00 0.00 0.00 0.00 0.00 0.00 0.00 0.00 0.00 0.00 0.00 0.00 0.00 0.01 0.02 0.07 0.12 0.12 0.16 0.17
0.00 0.00 0.00 0.00 0.00 0.00 0.00 0.00 0.00 0.00 0.00 0.00 0.00 0.00 0.00 0.00 0.00 0.00 0.00 0.00 0.00 0.00 0.00 0.00 0.00 0.00 0.00 0.00 0.00 0.00 0.00 0.00 0.00 0.00 0.00 0.00 0.00 0.01 0.05 0.09 0.09 0.11
0.00 0.00 0.00 0.00 0.00 0.00 0.00 0.00 0.00 0.00 0.00 0.00 0.00 0.00 0.00 0.00 0.00 0.00 0.00 0.00 0.00 0.00 0.00 0.00 0.00 0.00 0.00 0.00 0.00 0.00 0.00 0.00 0.00 0.00 0.00 0.00 0.00 0.00 0.01 0.03 0.06 0.07
0.00 0.00 0.00 0.00 0.00 0.00 0.00 0.00 0.00 0.00 0.00 0.00 0.00 0.00 0.00 0.00 0.00 0.00 0.00 0.00 0.00 0.00 0.00 0.00 0.00 0.00 0.00 0.00 0.00 0.00 0.00 0.00 0.00 0.00 0.00 0.00 0.00 0.00 0.00 0.00 0.02 0.05
0.00 0.00 0.00 0.00 0.00 0.00 0.00 0.00 0.00 0.00 0.00 0.00 0.00 0.00 0.00 0.00 0.00 0.00 0.00 0.00 0.00 0.00 0.00 0.00 0.00 0.00 0.00 0.00 0.00 0.00 0.00 0.00 0.00 0.00 0.00 0.00 0.00 0.00 0.00 0.00 0.01 0.02
0.00 0.00 0.00 0.00 0.00 0.00 0.00 0.00 0.00 0.00 0.00 0.00 0.00 0.00 0.00 0.00 0.00 0.00 0.00 0.00 0.00 0.00 0.00 0.00 0.00 0.00 0.00 0.00 0.00 0.00 0.00 0.00 0.00 0.00 0.00 0.00 0.00 0.00 0.00 0.00 0.00 0.00
0.00 0.00 0.00 0.00 0.00 0.00 0.00 0.00 0.00 0.00 0.00 0.00 0.00 0.00 0.00 0.00 0.00 0.00 0.00 0.00 0.00 0.00 0.00 0.00 0.00 0.00 0.00 0.00 0.00 0.00 0.00 0.00 0.00 0.00 0.00 0.00 0.00 0.00 0.00 0.00 0.00 0.00
0.00 0.00 0.00 0.00 0.00 0.00 0.00 0.00 0.00 0.00 0.00 0.00 0.00 0.00 0.00 0.00 0.00 0.00 0.00 0.00 0.00 0.00 0.00 0.00 0.00 0.00 0.00 0.00 0.00 0.00 0.00 0.00 0.00 0.00 0.00 0.00 0.00 0.00 0.00 0.00 0.00 0.00
0.00 0.00 0.00 0.00 0.00 0.00 0.00 0.00 0.00 0.00 0.00 0.00 0.00 0.00 0.00 0.00 0.00 0.00 0.00 0.00 0.00 0.00 0.00 0.00 0.00 0.00 0.00 0.00 0.00 0.00 0.00 0.00 0.00 0.00 0.00 0.00 0.00 0.00 0.00 0.00 0.00 0.00
0.00 0.00 0.00 0.00 0.00 0.00 0.00 0.00 0.00 0.00 0.00 0.00 0.00 0.00 0.00 0.00 0.00 0.00 0.00 0.00 0.00 0.00 0.00 0.00 0.00 0.00 0.00 0.00 0.00 0.00 0.00 0.00 0.00 0.00 0.00 0.00 0.00 0.00 0.00 0.00 0.00 0.00
0.00 0.00 0.00 0.00 0.00 0.00 0.00 0.00 0.00 0.00 0.00 0.00 0.00 0.00 0.00 0.00 0.00 0.00 0.00 0.00 0.00 0.00 0.00 0.00 0.00 0.00 0.00 0.00 0.00 0.00 0.00 0.00 0.00 0.00 0.00 0.00 0.00 0.00 0.00 0.00 0.00 0.00
0.00 0.00 0.00 0.00 0.00 0.00 0.00 0.00 0.00 0.00 0.00 0.00 0.00 0.00 0.00 0.00 0.00 0.00 0.00 0.00 0.00 0.00 0.00 0.00 0.00 0.00 0.00 0.00 0.00 0.00 0.00 0.00 0.00 0.00 0.00 0.00 0.00 0.00 0.00 0.00 0.00 0.00
0.00 0.00 0.00 0.00 0.00 0.00 0.00 0.00 0.00 0.00 0.00 0.00 0.00 0.00 0.00 0.00 0.00 0.00 0.00 0.00 0.00 0.00 0.00 0.00 0.00 0.00 0.00 0.00 0.00 0.00 0.00 0.00 0.00 0.00 0.00 0.00 0.00 0.00 0.00 0.00 0.00 0.00
0.00 0.00 0.00 0.00 0.00 0.00 0.00 0.00 0.00 0.00 0.00 0.00 0.00 0.00 0.00 0.00 0.00 0.00 0.00 0.00 0.00 0.00 0.00 0.00 0.00 0.00 0.00 0.00 0.00 0.00 0.00 0.00 0.00 0.00 0.00 0.00 0.00 0.00 0.00 0.00 0.00 0.00
0.00 0.00 0.00 0.00 0.00 0.00 0.00 0.00 0.00 0.00 0.00 0.00 0.00 0.00 0.00 0.00 0.00 0.00 0.00 0.00 0.00 0.00 0.00 0.00 0.00 0.00 0.00 0.00 0.00 0.00 0.00 0.00 0.00 0.00 0.00 0.00 0.00 0.00 0.00 0.00 0.00 0.00
0.00 0.00 0.00 0.00 0.00 0.00 0.00 0.00 0.00 0.00 0.00 0.00 0.00 0.00 0.00 0.00 0.00 0.00 0.00 0.00 0.00 0.00 0.00 0.00 0.00 0.00 0.00 0.00 0.00 0.00 0.00 0.00 0.00 0.00 0.00 0.00 0.00 0.00 0.00 0.00 0.00 0.00
0.00 0.00 0.00 0.00 0.00 0.00 0.00 0.00 0.00 0.00 0.00 0.00 0.00 0.00 0.00 0.00 0.00 0.00 0.00 0.00 0.00 0.00 0.00 0.00 0.00 0.00 0.00 0.00 0.00 0.00 0.00 0.00 0.00 0.00 0.00 0.00 0.00 0.00 0.00 0.00 0.00 0.00
0.00 0.00 0.00 0.00 0.00 0.00 0.00 0.00 0.00 0.00 0.00 0.00 0.00 0.00 0.00 0.00 0.00 0.00 0.00 0.00 0.00 0.00 0.00 0.00 0.00 0.00 0.00 0.00 0.00 0.00 0.00 0.00 0.00 0.00 0.00 0.00 0.00 0.00 0.00 0.00 0.00 0.00
0.00 0.00 0.00 0.00 0.00 0.00 0.00 0.00 0.00 0.00 0.00 0.00 0.00 0.00 0.00 0.00 0.00 0.00 0.00 0.00 0.00 0.00 0.00 0.00 0.00 0.00 0.00 0.00 0.00 0.00 0.00 0.00 0.00 0.00 0.00 0.00 0.00 0.00 0.00 0.00 0.00 0.00
0.00 0.00 0.00 0.00 0.00 0.00 0.00 0.00 0.00 0.00 0.00 0.00 0.00 0.00 0.00 0.00 0.00 0.00 0.00 0.00 0.00 0.00 0.00 0.00 0.00 0.00 0.00 0.00 0.00 0.00 0.00 0.00 0.00 0.00 0.00 0.00 0.00 0.00 0.00 0.00 0.00 0.00
MSLP
1019.04 1018.88 1018.92 1018.84 1018.76 1018.68 1018.60 1018.52 1018.44 1018.36 1018.28 1018.16 1018.08 1017.96 1017.76 1017.56 1017.20 1016.72 1016.40 1016.16 1016.00 1015.76 1015.56 1015.36 1015.12 1015.00 1014.76 1014.52 1014.36 1014.28 1013.96 1013.56 1013.16 1013.16 1012.80 1012.36 1011.80 1011.20 1010.76 1010.52 1010.20 1010.28
1019.20 1019.08 1019.04 1019.04 1018.92 1018.76 1018.68 1018.64 1018.64 1018.56 1018.52 1018.40 1018.24 1018.12 1017.96 1017.60 1017.08 1016.72 1016.48 1016.36 1016.12 1015.96 1015.76 1015.60 1015.44 1015.32 1015.00 1014.68 1014.64 1014.56 1014.20 1013.76 1013.32 1013.44 1013.00 1012.68 1012.36 1011.80 1011.44 1011.08 1010.80 1010.60
1019.36 1019.28 1019.20 1019.16 1019.12 1018.92 1018.84 1018.80 1018.80 1018.72 1018.60 1018.44 1018.32 1018.28 1018.12 1017.64 1017.20 1016.88 1016.64 1016.52 1016.36 1016.16 1016.00 1015.92 1015.84 1015.60 1015.28 1014.92 1014.88 1014.84 1014.56 1014.04 1013.56 1013.32 1013.20 1013.08 1012.76 1012.48 1012.16 1011.84 1011.60 1011.40
1019.56 1019.44 1019.36 1019.32 1019.24 1019.08 1019.04 1018.96 1018.92 1018.80 1018.64 1018.60 1018.60 1018.44 1018.28 1017.80 1017.36 1017.12 1016.80 1016.64 1016.56 1016.44 1016.32 1016.24 1016.24 1016.08 1015.64 1015.24 1015.08 1015.12 1014.88 1014.40 1013.84 1013.36 1013.36 1013.36 1013.20 1013.04 1012.76 1012.44 1012.28 1012.08
1019.76 1019.64 1019.56 1019.52 1019.40 1019.28 1019.24 1019.16 1019.08 1018.96 1018.88 1018.80 1018.80 1018.64 1018.36 1017.88 1017.48 1017.24 1017.00 1016.88 1016.84 1016.72 1016.64 1016.60 1016.60 1016.48 1016.12 1015.56 1015.36 1015.44 1015.16 1014.76 1014.20 1013.72 1013.60 1013.72 1013.68 1013.48 1013.32 1013.04 1012.84 1012.76
1019.92 1019.84 1019.76 1019.72 1019.64 1019.48 1019.40 1019.36 1019.24 1019.16 1019.08 1018.92 1018.92 1018.76 1018.48 1018.04 1017.60 1017.60 1017.32 1017.20 1017.08 1017.08 1017.00 1017.04 1017.00 1016.96 1016.52 1015.96 1015.60 1015.60 1015.44 1015.08 1014.64 1014.16 1013.88 1013.96 1013.96 1013.92 1013.80 1013.68 1013.44 1013.24
1020.16 1020.08 1020.00 1019.92 1019.84 1019.72 1019.60 1019.52 1019.44 1019.36 1019.24 1019.16 1019.04 1018.96 1018.60 1018.16 1017.84 1017.80 1017.48 1017.40 1017.48 1017.48 1017.48 1017.52 1017.48 1017.36 1017.08 1016.68 1016.20 1015.76 1015.64 1015.44 1015.12 1014.68 1014.32 1014.20 1014.20 1014.20 1014.12 1014.04 1013.92 1013.72
1020.28 1020.24 1020.16 1020.08 1020.04 1019.92 1019.80 1019.68 1019.60 1019.52 1019.44 1019.36 1019.32 1019.08 1018.64 1018.36 1018.12 1017.92 1017.72 1017.80 1017.84 1017.88 1018.00 1018.08 1018.00 1017.88 1017.60 1017.20 1016.84 1016.24 1015.80 1015.80 1015.64 1015.20 1014.88 1014.60 1014.48 1014.52 1014.56 1014.48 1014.36 1014.12
1020.36 1020.40 1020.32 1020.28 1020.20 1020.12 1020.00 1019.88 1019.76 1019.72 1019.64 1019.60 1019.48 1019.20 1018.80 1018.60 1018.36 1018.12 1018.20 1018.24 1018.20 1018.36 1018.48 1018.48 1018.44 1018.28 1018.00 1017.76 1017.28 1016.88 1016.20 1016.04 1015.88 1015.60 1015.32 1015.04 1014.88 1014.92 1014.96 1015.00 1014.84 1014.68
1020.52 1020.52 1020.48 1020.44 1020.40 1020.24 1020.20 1020.08 1019.92 1019.88 1019.88 1019.80 1019.60 1019.28 1018.96 1018.72 1018.60 1018.44 1018.60 1018.64 1018.64 1018.76 1018.92 1018.96 1018.84 1018.64 1018.44 1018.12 1017.76 1017.32 1016.80 1016.20 1016.16 1016.04 1015.76 1015.52 1015.40 1015.44 1015.44 1015.44 1015.40 1015.28
1020.64 1020.64 1020.60 1020.60 1020.52 1020.40 1020.32 1020.20 1020.08 1020.08 1020.12 1020.00 1019.68 1019.40 1019.24 1019.00 1018.76 1018.56 1018.88 1019.00 1019.04 1019.20 1019.40 1019.36 1019.24 1019.16 1018.92 1018.60 1018.16 1017.64 1017.28 1016.60 1016.64 1016.52 1016.40 1016.04 1015.80 1015.88 1015.96 1015.96 1015.96 1015.96
1020.76 1020.76 1020.76 1020.68 1020.64 1020.56 1020.48 1020.36 1020.28 1020.28 1020.28 1020.20 1020.00 1019.80 1019.56 1019.24 1018.92 1018.88 1019.24 1019.36 1019.40 1019.60 1019.80 1019.80 1019.60 1019.48 1019.36 1019.20 1018.76 1018.16 1017.76 1017.04 1016.96 1016.88 1016.84 1016.72 1016.52 1016.36 1016.28 1016.32 1016.36 1016.28
1020.88 1020.88 1020.88 1020.80 1020.72 1020.64 1020.60 1020.52 1020.48 1020.48 1020.44 1020.44 1020.24 1020.04 1019.84 1019.52 1019.16 1019.12 1019.48 1019.64 1019.84 1019.92 1020.08 1020.16 1020.04 1019.92 1019.84 1019.56 1019.16 1018.68 1018.20 1017.56 1017.12 1017.12 1017.12 1017.04 1016.96 1016.84 1016.72 1016.64 1016.64 1016.64
1021.00 1020.96 1020.92 1020.88 1020.80 1020.72 1020.72 1020.72 1020.68 1020.68 1020.68 1020.64 1020.52 1020.44 1020.24 1019.96 1019.60 1019.40 1019.64 1019.88 1020.12 1020.24 1020.40 1020.44 1020.48 1020.36 1020.32 1020.04 1019.60 1019.20 1018.68 1017.96 1017.36 1017.32 1017.36 1017.28 1017.20 1017.08 1017.00 1016.96 1016.92 1016.96
1021.00 1021.00 1021.00 1020.96 1020.92 1020.88 1020.84 1020.88 1020.88 1020.88 1020.84 1020.84 1020.80 1020.72 1020.60 1020.40 1020.16 1019.84 1019.80 1020.20 1020.40 1020.60 1020.68 1020.76 1020.84 1020.84 1020.92 1020.84 1020.36 1019.60 1019.16 1018.40 1017.72 1017.68 1017.68 1017.68 1017.64 1017.56 1017.44 1017.32 1017.24 1017.20
1021.00 1021.04 1021.08 1021.08 1021.08 1021.00 1021.00 1021.00 1021.04 1021.08 1021.08 1021.12 1021.08 1021.04 1020.96 1020.80 1020.60 1020.36 1020.12 1020.48 1020.72 1020.96 1021.08 1021.12 1021.28 1021.28 1021.20 1020.72 1020.48 1020.32 1019.56 1018.76 1018.12 1018.16 1018.12 1018.12 1018.16 1018.08 1018.00 1017.84 1017.76 1017.64
1021.12 1021.20 1021.20 1021.24 1021.20 1021.16 1021.20 1021.20 1021.20 1021.24 1021.28 1021.32 1021.32 1021.32 1021.32 1021.16 1020.96 1020.80 1020.64 1020.80 1021.00 1021.28 1021.52 1021.52 1021.60 1021.72 1021.40 1020.88 1020.40 1019.96 1019.76 1019.08 1018.40 1018.56 1018.56 1018.60 1018.64 1018.60 1018.56 1018.36 1018.04 1017.96
1021.24 1021.28 1021.40 1021.44 1021.36 1021.40 1021.40 1021.44 1021.44 1021.40 1021.48 1021.56 1021.56 1021.56 1021.56 1021.52 1021.44 1021.28 1021.04 1021.08 1021.28 1021.56 1021.84 1022.00 1022.00 1021.96 1021.60 1021.08 1020.64 1020.08 1019.68 1019.24 1018.60 1018.76 1018.92 1019.04 1019.12 1019.12 1019.08 1018.88 1018.56 1018.32
1021.36 1021.48 1021.56 1021.60 1021.60 1021.60 1021.64 1021.64 1021.64 1021.68 1021.72 1021.68 1021.72 1021.76 1021.80 1021.84 1021.92 1021.80 1021.64 1021.52 1021.52 1021.84 1022.20 1022.44 1022.36 1022.20 1021.80 1021.28 1020.80 1020.24 1019.68 1019.32 1018.80 1018.88 1019.12 1019.40 1019.56 1019.60 1019.60 1019.52 1019.20 1018.84
1021.48 1021.60 1021.68 1021.76 1021.76 1021.80 1021.88 1021.88 1021.88 1021.92 1021.88 1021.88 1021.84 1021.88 1022.00 1022.12 1022.20 1022.28 1022.24 1022.12 1021.96 1022.08 1022.48 1022.80 1022.76 1022.52 1021.96 1021.44 1021.00 1020.44 1019.80 1019.28 1018.92 1019.04 1019.28 1019.68 1019.92 1020.00 1020.04 1020.04 1019.88 1019.56
1021.60 1021.72 1021.84 1021.92 1021.92 1022.00 1022.12 1022.16 1022.16 1022.08 1022.04 1022.04 1022.04 1022.12 1022.24 1022.36 1022.48 1022.56 1022.64 1022.60 1022.44 1022.32 1022.60 1023.00 1023.16 1022.80 1022.24 1021.72 1021.24 1020.60 1020.00 1019.32 1019.08 1019.28 1019.40 1019.72 1020.12 1020.32 1020.40 1020.40 1020.36 1020.16
1021.72 1021.88 1021.96 1022.00 1022.08 1022.20 1022.28 1022.36 1022.36 1022.28 1022.20 1022.20 1022.16 1022.24 1022.36 1022.48 1022.64 1022.72 1022.88 1022.96 1022.88 1022.72 1022.76 1023.20 1023.36 1023.08 1022.60 1022.12 1021.64 1021.00 1020.32 1019.48 1019.40 1019.44 1019.64 1019.84 1020.12 1020.52 1020.64 1020.68 1020.68 1020.60
1021.84 1022.00 1022.12 1022.12 1022.28 1022.40 1022.52 1022.56 1022.52 1022.44 1022.32 1022.28 1022.36 1022.40 1022.48 1022.64 1022.76 1022.88 1023.00 1023.12 1023.16 1023.04 1022.96 1023.28 1023.44 1023.40 1023.04 1022.56 1022.08 1021.60 1020.84 1020.20 1019.96 1019.80 1019.84 1020.04 1020.24 1020.44 1020.72 1020.88 1020.88 1020.88
1021.92 1022.08 1022.24 1022.36 1022.52 1022.64 1022.72 1022.68 1022.60 1022.48 1022.40 1022.32 1022.44 1022.48 1022.60 1022.72 1022.84 1022.96 1023.04 1023.16 1023.32 1023.40 1023.28 1023.40 1023.60 1023.60 1023.36 1022.92 1022.56 1022.12 1021.56 1021.04 1020.88 1020.44 1020.36 1020.36 1020.52 1020.72 1020.80 1020.96 1021.04 1021.00
1022.08 1022.24 1022.44 1022.56 1022.72 1022.80 1022.76 1022.80 1022.80 1022.72 1022.60 1022.44 1022.40 1022.48 1022.64 1022.76 1022.92 1023.08 1023.16 1023.20 1023.32 1023.56 1023.56 1023.52 1023.64 1023.68 1023.56 1023.32 1023.00 1022.72 1022.24 1021.76 1021.64 1021.52 1020.96 1020.96 1020.92 1021.04 1021.16 1021.20 1021.20 1021.08
1022.36 1022.52 1022.64 1022.76 1022.84 1022.92 1022.92 1022.92 1022.84 1022.84 1022.88 1022.88 1022.80 1022.76 1022.88 1022.92 1023.00 1023.16 1023.28 1023.36 1023.32 1023.60 1023.84 1023.80 1023.80 1023.84 1023.84 1023.72 1023.48 1023.20 1022.92 1022.44 1022.20 1022.24 1021.92 1021.52 1021.56 1021.56 1021.60 1021.56 1021.48 1021.36
Thickness
5620 5617 5613 5610 5607 5604 5601 5597 5594 5591 5587 5584 5580 5577 5575 5572 5571 5570 5568 5566 5563 5562 5559 5556 5554 5550 5546 5543 5539 5534 5530 5527 5524 5520 5517 5514 5513 5515 5516 5515 5515 5512
5618 5616 5612 5608 5606 5603 5601 5597 5593 5589 5586 5582 5579 5576 5573 5571 5572 5570 5568 5565 5563 5560 5558 5555 5552 5549 5546 5543 5539 5534 5531 5528 5526 5520 5516 5514 5512 5513 5514 5513 5514 5514
5617 5614 5611 5607 5604 5602 5599 5596 5592 5588 5585 5582 5579 5575 5572 5571 5571 5569 5567 5564 5561 5559 5557 5554 5550 5547 5545 5543 5539 5534 5531 5528 5527 5522 5517 5514 5512 5510 5510 5510 5510 5510
5615 5613 5610 5606 5603 5601 5598 5594 5591 5587 5585 5581 5578 5574 5572 5571 5570 5568 5567 5563 5560 5558 5555 5552 5549 5546 5544 5542 5538 5534 5531 5529 5527 5525 5519 5514 5512 5510 5507 5507 5507 5507
5613 5610 5608 5605 5602 5599 5596 5593 5589 5586 5584 5580 5577 5574 5571 5571 5570 5568 5565 5562 5559 5556 5554 5551 5547 5544 5542 5542 5539 5534 5531 5529 5527 5525 5521 5515 5513 5510 5507 5506 5506 5505
5612 5609 5606 5603 5600 5597 5595 5591 5588 5585 5582 5579 5576 5573 5571 5571 5570 5567 5564 5561 5558 5555 5552 5549 5545 5543 5541 5540 5538 5534 5532 5530 5527 5526 5523 5518 5514 5511 5508 5506 5506 5506
5610 5607 5604 5601 5598 5596 5593 5590 5587 5584 5581 5578 5575 5572 5571 5570 5568 5565 5564 5561 5556 5553 5550 5546 5543 5541 5539 5538 5536 5535 5532 5530 5527 5525 5523 5520 5516 5512 5510 5508 5507 5507
5608 5606 5603 5600 5596 5594 5592 5589 5586 5583 5580 5577 5574 5572 5571 5569 5567 5565 5562 5559 5555 5551 5548 5544 5541 5539 5537 5535 5534 5534 5533 5529 5526 5525 5523 5520 5518 5514 5511 5510 5509 5508
5608 5604 5601 5598 5595 5592 5590 5587 5585 5582 5579 5576 5573 5572 5571 5568 5566 5563 5560 5557 5553 5549 5546 5542 5540 5537 5536 5534 5533 5532 5532 5530 5527 5525 5523 5521 5519 5515 5512 5510 5509 5509
5606 5603 5600 5597 5594 5591 5588 5586 5584 5581 5577 5575 5572 5571 5570 5568 5565 5562 5558 5554 5551 5547 5544 5541 5539 5537 5535 5533 5532 5531 5531 5530 5527 5524 5523 5521 5518 5515 5512 5510 5509 5507
5604 5601 5598 5595 5592 5590 5587 5585 5583 5580 5576 5574 5572 5570 5568 5567 5565 5562 5557 5553 5550 5545 5542 5539 5538 5536 5534 5532 5532 5531 5530 5530 5528 5524 5522 5520 5518 5515 5512 5510 5507 5506
5603 5600 5597 5594 5591 5588 5586 5584 5581 5579 5575 5572 5571 5569 5567 5565 5565 5561 5555 5551 5548 5544 5540 5538 5537 5535 5533 5532 5531 5531 5530 5529 5527 5524 5522 5519 5518 5515 5512 5510 5508 5506
5602 5599 5596 5593 5590 5587 5585 5582 5580 5577 5574 5571 5569 5567 5565 5564 5563 5560 5555 5550 5546 5543 5539 5537 5536 5534 5533 5531 5531 5530 5529 5530 5528 5525 5522 5520 5518 5516 5514 5511 5509 5506
5601 5598 5595 5592 5589 5587 5583 5581 5578 5576 5573 5571 5568 5566 5563 5562 5561 5559 5554 5549 5545 5542 5539 5536 5535 5533 5531 5530 5531 5530 5529 5530 5530 5526 5523 5521 5518 5516 5515 5513 5510 5508
5600 5597 5594 5590 5588 5585 5582 5580 5577 5574 5572 5569 5566 5563 5561 5559 5558 5557 5553 5548 5544 5540 5538 5535 5533 5531 5530 5528 5529 5529 5529 5530 5530 5527 5524 5521 5519 5517 5515 5514 5512 5509
5599 5596 5593 5589 5586 5584 5581 5578 5576 5573 5570 5567 5565 5561 5559 5557 5555 5554 5552 5547 5542 5539 5536 5534 5532 5530 5530 5530 5529 5529 5529 5530 5530 5526 5523 5521 5518 5517 5515 5514 5512 5511
5597 5594 5591 5587 5585 5582 5579 5577 5574 5571 5569 5565 5563 5560 5557 5555 5553 5552 5549 5545 5541 5537 5534 5533 5531 5529 5530 5531 5532 5531 5530 5531 5531 5527 5523 5520 5518 5516 5514 5513 5513 5512
5596 5593 5589 5586 5583 5580 5578 5575 5572 5570 5567 5564 5561 5558 5555 5553 5550 5549 5547 5544 5541 5537 5533 5531 5530 5529 5530 5531 5532 5533 5532 5532 5532 5529 5524 5520 5518 5515 5514 5513 5513 5512
5594 5591 5587 5584 5581 5578 5576 5574 5571 5568 5565 5563 5560 5557 5553 5551 5548 5546 5544 5541 5539 5535 5531 5529 5528 5528 5530 5531 5532 5533 5533 5533 5533 5529 5526 5522 5518 5516 5513 5512 5512 5512
5592 5589 5586 5582 5580 5577 5574 5572 5569 5567 5564 5561 5559 5555 5552 5549 5545 5542 5540 5538 5537 5535 5530 5527 5526 5526 5529 5531 5532 5533 5534 5535 5534 5531 5527 5523 5518 5516 5513 5512 5511 5510
5591 5587 5583 5580 5578 5575 5572 5570 5567 5566 5563 5560 5558 5554 5550 5548 5544 5541 5538 5536 5535 5533 5529 5526 5524 5525 5528 5530 5531 5533 5534 5536 5534 5531 5528 5524 5519 5516 5514 5511 5510 5509
5589 5585 5582 5579 5576 5573 5571 5568 5566 5564 5562 5560 5557 5553 5550 5546 5543 5539 5537 5534 5532 5532 5529 5525 5522 5523 5525 5527 5529 5531 5533 5536 5534 5531 5528 5525 5520 5516 5513 5511 5510 5508
5587 5584 5580 5577 5575 5572 5568 5566 5565 5563 5562 5559 5556 5553 5549 5545 5542 5538 5535 5533 5530 5529 5527 5524 5521 5521 5523 5525 5526 5528 5531 5532 5531 5530 5528 5524 5521 5517 5514 5511 5509 5508
5585 5582 5579 5575 5572 5570 5567 5565 5564 5562 5561 5559 5555 5552 5549 5545 5542 5538 5535 5532 5529 5527 5526 5524 5521 5520 5521 5522 5523 5525 5526 5528 5527 5526 5526 5523 5520 5517 5514 5511 5509 5508
5584 5580 5577 5573 5570 5568 5566 5564 5562 5560 5559 5557 5554 5552 5548 5545 5542 5538 5534 5532 5529 5525 5524 5523 5520 5519 5518 5519 5520 5521 5522 5523 5522 5522 5522 5521 5519 5515 5513 5511 5509 5508
5581 5577 5574 5571 5569 5567 5565 5562 5561 5559 5556 5554 5552 5549 5547 5544 5541 5537 5534 5532 5529 5525 5523 5520 5519 5518 5516 5516 5516 5516 5517 5519 5519 5517 5517 5517 5516 5513 5511 5510 5508 5508